Thermopolis, WY

7:16 PM MDT on April 27, 2017 (GMT -0600)
Thermopolis

Weather History for KTBX - October, 2013

Change the Weather History Date:

Friday, October 4, 2013

  Actual Average (KWRL) Record (KWRL)
Temperature  
Mean Temperature 22 °F -  
Max Temperature 24 °F 67 °F 87 °F (1963)
Min Temperature 21 °F 37 °F 25 °F (1966)
Degree Days  
Heating Degree Days 42    
Moisture  
Dew Point 21 °F    
Average Humidity 94    
Maximum Humidity 100    
Minimum Humidity 93    
Precipitation  
Precipitation 0.00 in - - ()
Sea Level Pressure  
Sea Level Pressure 30.25 in    
Wind  
Wind Speed 49 mph (NW)    
Max Wind Speed 64 mph    
Max Gust Speed 75 mph    
Averages and records for this station are not official NWS values.
T = Trace of Precipitation, MM = Missing Value Source: NWS Daily Summary

Daily Weather History Graph

Daily Weather History Graph

Search for Another Location

Airport or City:

Trip Planner

Search our weather history database for the weather conditions in past years. The results will help you decide how hot, cold, wet, or windy it might be!

Date:

Astronomy

Oct. 04, 2013 Rise Set
Actual Time 7:14 AM MDT 6:48 PM MDT
Civil Twilight 6:45 AM MDT 7:16 PM MDT
Nautical Twilight 6:12 AM MDT 7:49 PM MDT
Astronomical Twilight 5:39 AM MDT 8:23 PM MDT
Moon 6:53 AM MDT (10/4) 6:31 PM MDT (10/4)
Length of Visible Light 12h 30m
Length of Day
11h 33m
Waning Crescent, 0% of the Moon is Illuminated
Oct 4
Waning Crescent
Oct 4
New
Oct 11
First Quarter
Oct 18
Full
Oct 26
Last Quarter

Hourly Weather History & Observations

Time (MDT) Temp. Windchill Dew Point Humidity Pressure Visibility Wind Dir Wind Speed Gust Speed Precip Events Conditions
12:15 AM 24.8 °F 4.4 °F 23.0 °F 93% 30.07 in - NW 48.3 mph 51.8 mph N/A   Overcast
12:35 AM 24.8 °F 4.0 °F 23.0 °F 93% 30.05 in - WNW 50.6 mph 55.2 mph N/A   Overcast
12:55 AM 24.8 °F 4.2 °F 23.0 °F 93% 30.05 in - NW 49.5 mph - N/A   Overcast
1:15 AM 24.8 °F 3.5 °F 23.0 °F 93% 30.04 in - NW 54.1 mph - N/A   Overcast
1:35 AM 24.8 °F 3.9 °F 23.0 °F 93% 30.07 in - NW 51.8 mph - N/A   Overcast
1:55 AM 24.8 °F 3.5 °F 23.0 °F 93% 30.05 in - NW 54.1 mph - N/A   Unknown
2:15 AM 24.8 °F 3.4 °F 23.0 °F 93% 30.05 in - NW 55.2 mph - N/A   Unknown
2:35 AM 24.8 °F 3.7 °F 23.0 °F 93% 30.06 in - NW 52.9 mph - N/A   Unknown
2:55 AM 24.8 °F 3.7 °F 23.0 °F 93% 30.07 in - NW 52.9 mph - N/A   Unknown
3:15 AM 24.8 °F 3.4 °F 23.0 °F 93% 30.06 in - NW 55.2 mph - N/A   Unknown
3:35 AM 24.8 °F 3.4 °F 23.0 °F 93% 30.06 in - NW 55.2 mph - N/A   Unknown
1:35 PM 21.2 °F -2.9 °F 21.2 °F 100% 30.22 in - NW 63.3 mph 74.8 mph N/A   Unknown
1:55 PM 21.2 °F -3.0 °F 21.2 °F 100% 30.22 in - NW 64.4 mph 73.6 mph N/A   Unknown
2:15 PM 21.2 °F -2.7 °F 21.2 °F 100% 30.24 in - NW 62.1 mph 73.6 mph N/A   Unknown
2:35 PM 21.2 °F -1.9 °F 21.2 °F 100% 30.26 in - NW 56.4 mph 65.6 mph N/A   Unknown
2:55 PM 23.0 °F 0.8 °F 21.2 °F 93% 30.26 in - NW 55.2 mph 66.7 mph N/A   Unknown
3:15 PM 23.0 °F 0.6 °F 21.2 °F 93% 30.26 in - NW 56.4 mph 64.4 mph N/A   Unknown
3:35 PM 23.0 °F 0.5 °F 21.2 °F 93% 30.26 in - NW 57.5 mph 66.7 mph N/A   Unknown
3:55 PM 23.0 °F 0.8 °F 21.2 °F 93% 30.27 in - NW 55.2 mph 62.1 mph N/A   Unknown
4:15 PM 23.0 °F 1.3 °F 21.2 °F 93% 30.29 in - NW 51.8 mph 59.8 mph N/A   Unknown
4:35 PM 23.0 °F 0.6 °F 21.2 °F 93% 30.29 in - NW 56.4 mph 64.4 mph N/A   Unknown
4:55 PM 23.0 °F 1.0 °F 21.2 °F 93% 30.31 in - NW 54.1 mph 57.5 mph N/A   Unknown
5:15 PM 23.0 °F 1.3 °F 21.2 °F 93% 30.32 in - NW 51.8 mph 57.5 mph N/A   Unknown
5:35 PM 23.0 °F 2.2 °F 21.2 °F 93% 30.33 in - NW 46.0 mph 51.8 mph N/A   Unknown
5:55 PM 23.0 °F 2.6 °F 21.2 °F 93% 30.34 in - NW 43.7 mph - N/A   Unknown
6:15 PM 23.0 °F 2.2 °F 21.2 °F 93% 30.33 in - NW 46.0 mph - N/A   Unknown
6:35 PM 23.0 °F 1.8 °F 21.2 °F 93% 30.32 in - NW 48.3 mph - N/A   Unknown
6:55 PM 23.0 °F 2.6 °F 21.2 °F 93% 30.34 in - NW 43.7 mph - N/A   Unknown
7:15 PM 23.0 °F 3.4 °F 21.2 °F 93% 30.34 in - NW 39.1 mph - N/A   Unknown
7:35 PM 23.0 °F 3.4 °F 21.2 °F 93% 30.34 in - NW 39.1 mph - N/A   Unknown
7:55 PM 23.0 °F 4.1 °F 21.2 °F 93% 30.34 in - NW 35.7 mph - N/A   Unknown
8:15 PM 23.0 °F 4.4 °F 21.2 °F 93% 30.34 in - NW 34.5 mph - N/A   Unknown
8:35 PM 23.0 °F 4.1 °F 21.2 °F 93% 30.34 in - WNW 35.7 mph - N/A   Unknown
8:55 PM 23.0 °F 3.9 °F 21.2 °F 93% 30.34 in - NW 36.8 mph - N/A   Unknown
9:15 PM 21.2 °F 0.9 °F 21.2 °F 100% 30.34 in - NW 39.1 mph - N/A   Unknown
9:35 PM 21.2 °F 1.9 °F 21.2 °F 100% 30.35 in - NW 34.5 mph - N/A   Unknown
9:55 PM 21.2 °F 1.9 °F 19.4 °F 93% 30.35 in - NW 34.5 mph - N/A   Unknown
10:15 PM 21.2 °F 2.7 °F 19.4 °F 93% 30.36 in - NW 31.1 mph - N/A   Unknown
10:35 PM 21.2 °F 3.5 °F 19.4 °F 93% 30.36 in - WNW 27.6 mph - N/A   Unknown
10:55 PM 21.2 °F 3.0 °F 19.4 °F 93% 30.36 in - WNW 29.9 mph - N/A   Unknown
11:15 PM 21.2 °F 2.7 °F 21.2 °F 100% 30.36 in - WNW 31.1 mph - N/A   Unknown
11:35 PM 21.2 °F 2.4 °F 21.2 °F 100% 30.35 in - NW 32.2 mph - N/A   Unknown
11:55 PM 21.2 °F 2.4 °F 21.2 °F 100% 30.35 in - WNW 32.2 mph - N/A   Unknown